• In Portugal
  • List of Countries
  • For 7 days
  • Water Temperature
  • Satellite Maps
  • Weather Map
  • Weather Widgets
  • user-avatar
    Login

    Hourly Weather Hampi

    Today, 23 April, Monday

    Time Temperature Precipitation Wind Pressure Humidity
    00:00 +32°C° 0.1 mm 7 mps 713 mmHg 60%
    01:00 +32°C° 0.1 mm 6 mps 713 mmHg 64%
    02:00 +30°C° 0.1 mm 6 mps 713 mmHg 68%
    03:00 +30°C° 0.1 mm 5 mps 713 mmHg 69%
    04:00 +29°C° 0.1 mm 5 mps 713 mmHg 71%
    05:00 +29°C° 0.1 mm 5 mps 713 mmHg 72%
    06:00 +30°C° 0 mm 5 mps 714 mmHg 66%
    07:00 +30°C° 0 mm 5 mps 714 mmHg 60%
    08:00 +32°C° 0 mm 4 mps 715 mmHg 54%
    09:00 +34°C° 0 mm 4 mps 715 mmHg 44%
    10:00 +37°C° 0 mm 4 mps 714 mmHg 34%
    11:00 +39°C° 0 mm 3 mps 714 mmHg 23%
    12:00 +40°C° 0 mm 2 mps 714 mmHg 21%
    13:00 +41°C° 0 mm 1 mps 713 mmHg 19%
    14:00 +42°C° 0 mm 1 mps 712 mmHg 17%
    15:00 +41°C° 0 mm 1 mps 712 mmHg 16%
    16:00 +41°C° 0 mm 1 mps 712 mmHg 16%
    17:00 +41°C° 0 mm 1 mps 712 mmHg 15%
    18:00 +41°C° 0 mm 1 mps 712 mmHg 16%
    19:00 +40°C° 0 mm 2 mps 713 mmHg 17%
    20:00 +40°C° 0 mm 3 mps 713 mmHg 18%
    21:00 +39°C° 0 mm 3 mps 713 mmHg 24%
    22:00 +38°C° 0 mm 4 mps 714 mmHg 29%
    23:00 +36°C° 0 mm 4 mps 714 mmHg 34%

    Tomorrow, 24 April, Tuesday

    Time Temperature Precipitation Wind Pressure Humidity
    00:00 +35°C° 0 mm 4 mps 713 mmHg 39%
    01:00 +34°C° 0 mm 4 mps 713 mmHg 43%
    02:00 +33°C° 0 mm 5 mps 713 mmHg 47%
    03:00 +33°C° 0 mm 4 mps 713 mmHg 49%
    04:00 +32°C° 0 mm 4 mps 713 mmHg 51%
    05:00 +30°C° 0 mm 4 mps 713 mmHg 52%
    06:00 +32°C° 0 mm 4 mps 713 mmHg 48%
    07:00 +33°C° 0 mm 4 mps 714 mmHg 44%
    08:00 +34°C° 0 mm 4 mps 714 mmHg 40%
    09:00 +36°C° 0 mm 3 mps 714 mmHg 32%
    10:00 +38°C° 0 mm 3 mps 714 mmHg 25%
    11:00 +40°C° 0 mm 3 mps 714 mmHg 18%
    12:00 +42°C° 0 mm 3 mps 713 mmHg 16%
    13:00 +42°C° 0 mm 2 mps 713 mmHg 14%
    14:00 +43°C° 0 mm 2 mps 712 mmHg 11%
    15:00 +43°C° 0 mm 2 mps 712 mmHg 11%
    16:00 +43°C° 0 mm 2 mps 711 mmHg 10%
    17:00 +43°C° 0 mm 2 mps 711 mmHg 9%
    18:00 +42°C° 0 mm 2 mps 711 mmHg 12%
    19:00 +42°C° 0 mm 3 mps 712 mmHg 14%
    20:00 +40°C° 0 mm 4 mps 712 mmHg 17%
    21:00 +39°C° 0 mm 5 mps 712 mmHg 27%
    22:00 +36°C° 0 mm 6 mps 713 mmHg 38%
    23:00 +34°C° 0 mm 7 mps 713 mmHg 49%

    Day after tomorrow, 25 April, Wednesday

    Time Temperature Precipitation Wind Pressure Humidity
    00:00 +33°C° 0 mm 6 mps 712 mmHg 49%
    01:00 +33°C° 0 mm 6 mps 712 mmHg 48%
    02:00 +32°C° 0 mm 5 mps 712 mmHg 48%
    03:00 +30°C° 0 mm 5 mps 712 mmHg 52%
    04:00 +29°C° 0 mm 4 mps 712 mmHg 55%
    05:00 +29°C° 0 mm 4 mps 712 mmHg 59%
    06:00 +29°C° 0 mm 4 mps 712 mmHg 55%
    07:00 +30°C° 0 mm 4 mps 713 mmHg 52%
    08:00 +32°C° 0 mm 4 mps 714 mmHg 48%
    09:00 +34°C° 0 mm 4 mps 713 mmHg 40%
    10:00 +36°C° 0 mm 3 mps 713 mmHg 32%
    11:00 +38°C° 0 mm 3 mps 713 mmHg 23%
    12:00 +39°C° 0 mm 2 mps 713 mmHg 21%
    13:00 +40°C° 0 mm 2 mps 712 mmHg 18%
    14:00 +42°C° 0 mm 1 mps 711 mmHg 15%
    15:00 +42°C° 0 mm 1 mps 711 mmHg 15%
    16:00 +42°C° 0 mm 2 mps 711 mmHg 15%
    17:00 +42°C° 0 mm 2 mps 711 mmHg 15%
    18:00 +41°C° 0 mm 2 mps 711 mmHg 16%
    19:00 +40°C° 0 mm 3 mps 712 mmHg 18%
    20:00 +39°C° 0 mm 3 mps 713 mmHg 20%
    21:00 +37°C° 0 mm 4 mps 713 mmHg 29%
    22:00 +36°C° 0 mm 5 mps 713 mmHg 38%
    23:00 +34°C° 0 mm 6 mps 713 mmHg 47%

    26 April, Thursday

    Time Temperature Precipitation Wind Pressure Humidity
    00:00 +33°C° 0 mm 6 mps 712 mmHg 50%
    01:00 +32°C° 0 mm 6 mps 712 mmHg 54%
    02:00 +30°C° 0 mm 6 mps 711 mmHg 57%
    03:00 +30°C° 0 mm 5 mps 711 mmHg 57%
    04:00 +29°C° 0 mm 5 mps 712 mmHg 58%
    05:00 +29°C° 0 mm 4 mps 712 mmHg 58%
    06:00 +30°C° 0 mm 4 mps 713 mmHg 54%
    07:00 +32°C° 0 mm 4 mps 713 mmHg 49%
    08:00 +33°C° 0 mm 3 mps 714 mmHg 44%
    09:00 +35°C° 0 mm 3 mps 714 mmHg 38%
    10:00 +37°C° 0 mm 3 mps 714 mmHg 31%
    11:00 +39°C° 0 mm 2 mps 714 mmHg 25%
    12:00 +40°C° 0 mm 2 mps 713 mmHg 22%
    13:00 +41°C° 0 mm 1 mps 712 mmHg 19%
    14:00 +42°C° 0 mm 1 mps 711 mmHg 16%
    15:00 +41°C° 0 mm 1 mps 711 mmHg 17%
    16:00 +41°C° 0 mm 1 mps 711 mmHg 17%
    17:00 +40°C° 0 mm 1 mps 711 mmHg 17%
    18:00 +40°C° 0 mm 1 mps 711 mmHg 18%
    19:00 +40°C° 0 mm 1 mps 712 mmHg 19%
    20:00 +39°C° 0 mm 2 mps 713 mmHg 20%
    21:00 +38°C° 0 mm 3 mps 713 mmHg 28%
    22:00 +36°C° 0 mm 4 mps 713 mmHg 36%
    23:00 +35°C° 0 mm 5 mps 713 mmHg 43%

    27 April, Friday

    Time Temperature Precipitation Wind Pressure Humidity
    00:00 +34°C° 0 mm 5 mps 712 mmHg 47%
    01:00 +33°C° 0 mm 4 mps 712 mmHg 50%
    02:00 +31°C° 0 mm 3 mps 711 mmHg 53%
    03:00 +31°C° 0 mm 3 mps 712 mmHg 53%
    04:00 +30°C° 0 mm 3 mps 712 mmHg 53%
    05:00 +30°C° 0 mm 2 mps 712 mmHg 54%
    06:00 +31°C° 0 mm 3 mps 713 mmHg 47%
    07:00 +34°C° 0 mm 3 mps 714 mmHg 40%
    08:00 +35°C° 0 mm 3 mps 715 mmHg 34%
    09:00 +37°C° 0 mm 2 mps 715 mmHg 29%
    10:00 +38°C° 0 mm 2 mps 714 mmHg 25%
    11:00 +40°C° 0 mm 1 mps 714 mmHg 20%
    12:00 +41°C° 0 mm 1 mps 714 mmHg 18%
    13:00 +42°C° 0 mm 1 mps 713 mmHg 16%
    14:00 +40°C° 0 mm 0 mps 712 mmHg 14%
    15:00 +43°C° 0 mm 1 mps 712 mmHg 14%
    16:00 +42°C° 0 mm 1 mps 712 mmHg 14%
    17:00 +42°C° 0 mm 2 mps 712 mmHg 14%
    18:00 +42°C° 0 mm 2 mps 712 mmHg 14%
    19:00 +41°C° 0 mm 2 mps 713 mmHg 15%
    20:00 +40°C° 0 mm 2 mps 713 mmHg 16%
    21:00 +40°C° 0 mm 3 mps 713 mmHg 19%
    22:00 +39°C° 0 mm 3 mps 713 mmHg 22%
    23:00 +38°C° 0 mm 4 mps 713 mmHg 26%

    28 April, Saturday

    Time Temperature Precipitation Wind Pressure Humidity
    00:00 +37°C° 0 mm 4 mps 713 mmHg 31%
    01:00 +35°C° 0 mm 4 mps 712 mmHg 36%
    02:00 +34°C° 0 mm 4 mps 712 mmHg 42%
    03:00 +34°C° 0 mm 4 mps 712 mmHg 45%
    04:00 +33°C° 0 mm 4 mps 712 mmHg 47%
    05:00 +31°C° 0 mm 3 mps 713 mmHg 50%
    06:00 +33°C° 0 mm 3 mps 713 mmHg 47%
    07:00 +34°C° 0 mm 3 mps 714 mmHg 44%
    08:00 +35°C° 0 mm 2 mps 715 mmHg 40%
    09:00 +37°C° 0 mm 2 mps 715 mmHg 34%
    10:00 +38°C° 0 mm 2 mps 715 mmHg 28%
    11:00 +40°C° 0 mm 2 mps 715 mmHg 22%
    12:00 +41°C° 0 mm 1 mps 714 mmHg 19%
    13:00 +42°C° 0 mm 1 mps 713 mmHg 17%
    14:00 +43°C° 0 mm 1 mps 712 mmHg 14%
    15:00 +43°C° 0 mm 1 mps 712 mmHg 14%
    16:00 +43°C° 0 mm 1 mps 712 mmHg 14%
    17:00 +43°C° 0 mm 1 mps 712 mmHg 14%
    18:00 +42°C° 0 mm 2 mps 712 mmHg 15%
    19:00 +41°C° 0 mm 2 mps 713 mmHg 17%
    20:00 +40°C° 0 mm 3 mps 713 mmHg 18%
    21:00 +40°C° 0 mm 4 mps 713 mmHg 28%
    22:00 +38°C° 0 mm 6 mps 713 mmHg 37%
    23:00 +35°C° 0 mm 7 mps 713 mmHg 46%
    Show more